• In Uzbekistan
  • List of Countries
  • For 7 days
  • Water Temperature
  • Satellite Maps
  • Weather Map
  • Weather Widgets
  • user-avatar
    Login

    Hourly Weather Ghazni

    Today, 18 November, Saturday

    Time Temperature Precipitation Wind Pressure Humidity
    00:00 +2°C° 0 mm 1 mps 583 mmHg 54%
    01:00 +2°C° 0 mm 1 mps 583 mmHg 54%
    02:00 +2°C° 0 mm 1 mps 583 mmHg 54%
    03:00 +1°C° 0 mm 1 mps 583 mmHg 53%
    04:00 +1°C° 0 mm 1 mps 583 mmHg 53%
    05:00 +1°C° 0 mm 1 mps 583 mmHg 52%
    06:00 +1°C° 0 mm 1 mps 583 mmHg 52%
    07:00 +1°C° 0 mm 1 mps 583 mmHg 51%
    08:00 +1°C° 0 mm 1 mps 584 mmHg 50%
    09:00 +3°C° 0 mm 1 mps 584 mmHg 46%
    10:00 +4°C° 0 mm 1 mps 585 mmHg 41%
    11:00 +6°C° 0 mm 1 mps 585 mmHg 37%
    12:00 +6°C° 0 mm 1 mps 585 mmHg 36%
    13:00 +7°C° 0 mm 1 mps 585 mmHg 35%
    14:00 +7°C° 0 mm 1 mps 585 mmHg 34%
    15:00 +7°C° 0 mm 1 mps 585 mmHg 36%
    16:00 +7°C° 0 mm 1 mps 585 mmHg 39%
    17:00 +6°C° 0 mm 1 mps 585 mmHg 42%
    18:00 +5°C° 0 mm 1 mps 585 mmHg 43%
    19:00 +5°C° 0 mm 1 mps 585 mmHg 45%
    20:00 +4°C° 0 mm 1 mps 585 mmHg 47%
    21:00 +3°C° 0 mm 1 mps 585 mmHg 47%
    22:00 +3°C° 0 mm 1 mps 585 mmHg 48%
    23:00 +3°C° 0 mm 1 mps 585 mmHg 49%

    Tomorrow, 19 November, Sunday

    Time Temperature Precipitation Wind Pressure Humidity
    00:00 +2°C° 0 mm 1 mps 585 mmHg 48%
    01:00 +2°C° 0 mm 1 mps 585 mmHg 48%
    02:00 +2°C° 0 mm 1 mps 585 mmHg 48%
    03:00 +1°C° 0 mm 2 mps 585 mmHg 48%
    04:00 -1°C° 0 mm 2 mps 584 mmHg 48%
    05:00 -1°C° 0 mm 2 mps 584 mmHg 47%
    06:00 -1°C° 0 mm 2 mps 585 mmHg 46%
    07:00 -1°C° 0 mm 2 mps 585 mmHg 45%
    08:00 -1°C° 0 mm 2 mps 585 mmHg 43%
    09:00 +2°C° 0 mm 2 mps 586 mmHg 38%
    10:00 +4°C° 0 mm 1 mps 586 mmHg 33%
    11:00 +6°C° 0 mm 1 mps 587 mmHg 28%
    12:00 +7°C° 0 mm 1 mps 586 mmHg 26%
    13:00 +7°C° 0 mm 1 mps 586 mmHg 24%
    14:00 +8°C° 0 mm 1 mps 586 mmHg 22%
    15:00 +8°C° 0 mm 1 mps 586 mmHg 24%
    16:00 +7°C° 0 mm 1 mps 586 mmHg 27%
    17:00 +7°C° 0 mm 1 mps 585 mmHg 29%
    18:00 +6°C° 0 mm 1 mps 585 mmHg 31%
    19:00 +5°C° 0 mm 1 mps 585 mmHg 33%
    20:00 +4°C° 0 mm 1 mps 585 mmHg 35%
    21:00 +3°C° 0 mm 1 mps 585 mmHg 36%
    22:00 +3°C° 0 mm 1 mps 585 mmHg 37%
    23:00 +3°C° 0 mm 1 mps 585 mmHg 38%

    Day after tomorrow, 20 November, Monday

    Time Temperature Precipitation Wind Pressure Humidity
    00:00 +2°C° 0 mm 1 mps 585 mmHg 38%
    01:00 +1°C° 0 mm 0 mps 584 mmHg 38%
    02:00 0°C° 0 mm 0 mps 584 mmHg 38%
    03:00 +1°C° 0 mm 1 mps 584 mmHg 37%
    04:00 +1°C° 0 mm 1 mps 584 mmHg 37%
    05:00 +1°C° 0 mm 1 mps 583 mmHg 37%
    06:00 +1°C° 0 mm 1 mps 584 mmHg 35%
    07:00 +1°C° 0 mm 1 mps 584 mmHg 34%
    08:00 +2°C° 0 mm 1 mps 585 mmHg 32%
    09:00 +3°C° 0 mm 1 mps 585 mmHg 28%
    10:00 +5°C° 0 mm 1 mps 586 mmHg 24%
    11:00 +6°C° 0 mm 0 mps 587 mmHg 21%
    12:00 +7°C° 0 mm 1 mps 586 mmHg 20%
    13:00 +8°C° 0 mm 1 mps 586 mmHg 18%
    14:00 +9°C° 0 mm 1 mps 586 mmHg 17%
    15:00 +8°C° 0 mm 1 mps 586 mmHg 20%
    16:00 +7°C° 0 mm 1 mps 585 mmHg 23%
    17:00 +7°C° 0 mm 1 mps 585 mmHg 25%
    18:00 +6°C° 0 mm 1 mps 585 mmHg 27%
    19:00 +5°C° 0 mm 1 mps 585 mmHg 29%
    20:00 +4°C° 0 mm 1 mps 584 mmHg 30%
    21:00 +3°C° 0 mm 1 mps 584 mmHg 30%
    22:00 +2°C° 0 mm 0 mps 584 mmHg 30%
    23:00 +2°C° 0 mm 0 mps 584 mmHg 30%

    21 November, Tuesday

    Time Temperature Precipitation Wind Pressure Humidity
    00:00 +1°C° 0 mm 0 mps 584 mmHg 29%
    01:00 +1°C° 0 mm 0 mps 583 mmHg 29%
    02:00 +1°C° 0 mm 0 mps 583 mmHg 28%
    03:00 +2°C° 0 mm 1 mps 583 mmHg 28%
    04:00 +2°C° 0 mm 1 mps 583 mmHg 27%
    05:00 +1°C° 0 mm 1 mps 582 mmHg 26%
    06:00 +2°C° 0 mm 1 mps 583 mmHg 25%
    07:00 +2°C° 0 mm 1 mps 583 mmHg 24%
    08:00 +3°C° 0 mm 1 mps 584 mmHg 23%
    09:00 +4°C° 0 mm 1 mps 585 mmHg 20%
    10:00 +5°C° 0 mm 0 mps 585 mmHg 17%
    11:00 +7°C° 0 mm 0 mps 586 mmHg 15%
    12:00 +7°C° 0 mm 0 mps 586 mmHg 15%
    13:00 +9°C° 0 mm 1 mps 585 mmHg 14%
    14:00 +10°C° 0 mm 1 mps 585 mmHg 14%
    15:00 +9°C° 0 mm 1 mps 585 mmHg 17%
    16:00 +8°C° 0 mm 1 mps 584 mmHg 20%
    17:00 +7°C° 0 mm 1 mps 584 mmHg 23%
    18:00 +6°C° 0 mm 1 mps 584 mmHg 24%
    19:00 +5°C° 0 mm 1 mps 584 mmHg 25%
    20:00 +4°C° 0 mm 1 mps 583 mmHg 26%
    21:00 +4°C° 0 mm 1 mps 583 mmHg 26%
    22:00 +3°C° 0 mm 0 mps 583 mmHg 27%
    23:00 +2°C° 0 mm 0 mps 583 mmHg 27%

    22 November, Wednesday

    Time Temperature Precipitation Wind Pressure Humidity
    00:00 +2°C° 0 mm 0 mps 583 mmHg 27%
    01:00 +1°C° 0 mm 0 mps 583 mmHg 27%
    02:00 +1°C° 0 mm 0 mps 582 mmHg 26%
    03:00 +2°C° 0 mm 1 mps 582 mmHg 26%
    04:00 +2°C° 0 mm 1 mps 582 mmHg 25%
    05:00 +2°C° 0 mm 1 mps 582 mmHg 24%
    06:00 +2°C° 0 mm 1 mps 582 mmHg 23%
    07:00 +2°C° 0 mm 1 mps 583 mmHg 22%
    08:00 +2°C° 0 mm 1 mps 583 mmHg 21%
    09:00 +4°C° 0 mm 1 mps 584 mmHg 19%
    10:00 +5°C° 0 mm 0 mps 585 mmHg 16%
    11:00 +7°C° 0 mm 0 mps 586 mmHg 13%
    12:00 +8°C° 0 mm 0 mps 585 mmHg 13%
    13:00 +10°C° 0 mm 1 mps 585 mmHg 13%
    14:00 +10°C° 0 mm 1 mps 585 mmHg 13%
    15:00 +9°C° 0 mm 1 mps 585 mmHg 16%
    16:00 +9°C° 0 mm 1 mps 584 mmHg 19%
    17:00 +8°C° 0 mm 1 mps 584 mmHg 21%
    18:00 +7°C° 0 mm 1 mps 584 mmHg 22%
    19:00 +5°C° 0 mm 0 mps 584 mmHg 23%
    20:00 +5°C° 0 mm 0 mps 584 mmHg 24%
    21:00 +4°C° 0 mm 0 mps 583 mmHg 24%
    22:00 +4°C° 0 mm 0 mps 583 mmHg 25%
    23:00 +4°C° 0 mm 0 mps 583 mmHg 25%

    23 November, Thursday

    Time Temperature Precipitation Wind Pressure Humidity
    00:00 +3°C° 0 mm 0 mps 583 mmHg 25%
    01:00 +3°C° 0 mm 0 mps 583 mmHg 24%
    02:00 +3°C° 0 mm 0 mps 582 mmHg 24%
    03:00 +3°C° 0 mm 0 mps 582 mmHg 24%
    04:00 +4°C° 0 mm 1 mps 582 mmHg 24%
    05:00 +4°C° 0 mm 1 mps 582 mmHg 23%
    06:00 +3°C° 0 mm 0 mps 582 mmHg 23%
    07:00 +3°C° 0 mm 0 mps 582 mmHg 23%
    08:00 +3°C° 0 mm 0 mps 582 mmHg 23%
    09:00 +5°C° 0 mm 0 mps 583 mmHg 21%
    10:00 +7°C° 0 mm 0 mps 584 mmHg 18%
    11:00 +9°C° 0 mm 1 mps 585 mmHg 16%
    12:00 +10°C° 0 mm 1 mps 585 mmHg 17%
    13:00 +11°C° 0 mm 1 mps 585 mmHg 17%
    14:00 +10°C° 0 mm 2 mps 585 mmHg 18%
    15:00 +10°C° 0 mm 2 mps 584 mmHg 20%
    16:00 +9°C° 0 mm 2 mps 584 mmHg 22%
    17:00 +9°C° 0 mm 2 mps 584 mmHg 24%
    18:00 +9°C° 0 mm 1 mps 584 mmHg 26%
    19:00 +8°C° 0 mm 1 mps 584 mmHg 27%
    20:00 +7°C° 0 mm 0 mps 584 mmHg 29%
    21:00 +6°C° 0 mm 0 mps 584 mmHg 30%
    22:00 +5°C° 0 mm 0 mps 584 mmHg 32%
    23:00 +4°C° 0 mm 0 mps 584 mmHg 33%
    Show more